STARLINK-1608, 46146

Orbit data source: Space-Track

STARLINK-1608, 46146 is a payload satellite owned by SpaceX/Seattle (US) in LEO that was launched on Tue, 18 Aug 2020 UTC via an FALCON 9 launch vehicle from the Air Force Eastern Test Range (AFETR). Payload-class satellites include a variety of spacecraft equipped with specific instruments for various scientific and technological missions. These include communications satellites like Starlink; space stations such as the ISS; scientific satellites like the Hubble; Earth observation satellites from companies like Planet Labs, Umbra, and HawkEye 360; GPS; miniature CubeSats for education and research; and military/defense satellites.

Loading next visibility...
Identifier
46146, 2020-057AF
Orbit
LEO
Country
Flag of USUS
Related business
Manufacturer
SpaceX/Seattle
Mission
Operational Commercial Communications
Bus & Motor
STARLINK, Unknown motor
Mass
260 kg wet, ~248 kg dry
Launch date (UTC)
2020-08-18 (5 years ago)
Launch vehicle
FALCON 9
Launch site
Air Force Eastern Test Range (AFETR)
Object type
Payload
Rocket body
Debris
Shape & HBR
Box + 1 Pan, 10.1 m
Radar Cross Section
13.562 m², Large (>1 m²)

Expand to show TLE details & history
Last TLE update: 6 hours ago

TLE from 6 hours ago
0 STARLINK-1608
1 46146U 20057AF  26034.22177186  .00004527  00000-0  16904-3 0  9995
2 46146  53.1556 109.3912 0001339  82.9750 277.1403 15.29368561300902
Epoch: 2026-02-03T05:19Z
TLE epoch observation values (Epoch: 2026-02-03T05:19:21.088Z)
Latitude
-0°
Longitude
-103.85248°
Altitude
478.484 km
Speed
7.628 km/s
True Right ascension
07h 17m 33s
True Declination
0° 00' 00"
Sunlit
Object was in full shadow at epoch
Visualization orbit readout
Latitude
Unknown
Longitude
Unknown
Altitude
Unknown
Speed
Unknown
Apparent Right ascension
Unknown
Apparent Declination
Unknown
Sunlit
N/A
Visualization observer readout
Local Sidereal Time
13:29:26
Azimuth
Unknown
Elevation
Unknown
Doppler factor
Unknown
Orbital elements
Apogee altitude
478.874 km
Perigee altitude
477.038 km
Semi-major axis
6,856.093 km
Eccentricity
0.00013
Inclination
53.1556°
RAAN
109.3912°
Arg. of periapsis
82.975°
True anomaly
277.12507°
Mean anomaly
277.1403°
Eccentric anomaly
277.13269°
Mean motion
3.82321 °/min
Orbital period
94.16 mins
BSTAR
0.00016904
Loading maneuver chart data...
Computing Atmospheric mass density...

Documentation

Showing up to 5 results
|